Total_Precipitation_Accumulation
1.15 1.17 1.28 1.44 1.54 1.60 1.75 1.73 1.67 1.65 1.69 1.64 1.58 1.62 1.60 1.51 1.58 1.77 1.88 2.07 2.20 2.26 2.24 2.28 2.28 2.39 2.43 2.33 2.43 2.56 2.77 2.94 2.62 2.14 2.20 2.34 2.30 2.09 1.91 1.74 1.62 1.59 1.58
1.15 1.22 1.28 1.38 1.45 1.50 1.56 1.64 1.71 1.69 1.74 1.71 1.66 1.63 1.52 1.50 1.58 1.69 1.83 2.00 2.14 2.25 2.36 2.44 2.24 2.32 2.44 2.38 2.39 2.42 2.53 2.80 2.71 2.56 2.52 2.59 2.51 2.25 2.03 1.77 1.48 1.35 1.41
1.27 1.27 1.23 1.29 1.27 1.33 1.42 1.48 1.60 1.66 1.70 1.75 1.77 1.69 1.64 1.67 1.74 1.79 1.85 1.99 2.11 2.18 2.29 2.28 2.22 2.35 2.27 2.31 2.38 2.37 2.37 2.44 2.56 2.52 2.41 2.49 2.43 2.23 2.04 1.79 1.55 1.52 1.38
1.16 1.20 1.23 1.23 1.26 1.36 1.44 1.47 1.52 1.49 1.55 1.59 1.60 1.68 1.72 1.76 1.80 1.79 1.78 1.81 1.88 1.95 1.94 1.85 1.79 1.85 1.94 2.10 2.11 2.12 2.20 2.27 2.36 2.31 2.28 2.37 2.39 2.42 2.26 1.97 1.81 1.64 1.47
1.18 1.15 1.20 1.27 1.29 1.33 1.34 1.34 1.37 1.43 1.45 1.62 1.65 1.72 1.78 1.75 1.66 1.70 1.69 1.60 1.77 1.74 1.61 1.56 1.57 1.66 1.69 1.77 1.71 1.80 1.98 2.05 2.12 2.21 2.28 2.44 2.47 2.59 2.45 2.17 2.03 1.88 1.60
1.16 1.25 1.32 1.31 1.24 1.29 1.30 1.28 1.31 1.42 1.52 1.61 1.66 1.77 1.81 1.67 1.70 1.72 1.72 1.69 1.74 1.70 1.64 1.57 1.45 1.45 1.44 1.48 1.51 1.57 1.71 1.84 2.01 2.18 2.25 2.34 2.41 2.38 2.34 2.21 2.10 1.93 1.65
1.18 1.21 1.36 1.44 1.35 1.40 1.43 1.43 1.44 1.47 1.59 1.66 1.79 1.85 1.81 1.85 1.75 1.60 1.62 1.60 1.65 1.69 1.71 1.69 1.42 1.25 1.35 1.34 1.46 1.44 1.41 1.47 1.58 1.75 1.87 2.00 2.20 2.28 2.37 2.29 2.28 2.15 1.88
1.21 1.29 1.52 1.67 1.57 1.58 1.59 1.62 1.67 1.73 1.76 1.87 1.89 1.78 1.72 1.76 1.69 1.43 1.35 1.27 1.39 1.50 1.58 1.64 1.62 1.52 1.48 1.49 1.55 1.55 1.48 1.45 1.54 1.54 1.60 1.81 2.14 2.40 2.44 2.40 2.42 2.30 2.01
1.33 1.47 1.70 1.90 1.95 1.92 1.85 1.94 2.01 2.00 1.98 2.03 2.06 2.00 1.87 1.84 1.67 1.36 1.23 1.17 1.31 1.39 1.45 1.45 1.44 1.35 1.36 1.29 1.32 1.39 1.41 1.37 1.35 1.36 1.39 1.52 1.79 2.15 2.33 2.36 2.44 2.34 2.12
1.53 1.56 1.71 1.90 1.97 1.95 1.95 2.14 2.27 2.23 2.16 2.19 2.07 1.94 1.85 1.83 1.77 1.46 1.28 1.20 1.33 1.41 1.50 1.48 1.45 1.38 1.35 1.21 1.16 1.24 1.23 1.23 1.28 1.29 1.28 1.27 1.38 1.67 1.99 1.98 2.05 2.17 1.97
1.53 1.57 1.69 1.90 2.18 2.13 2.15 2.24 2.32 2.33 2.34 2.35 2.25 2.14 1.99 1.95 1.92 1.60 1.41 1.31 1.40 1.45 1.39 1.39 1.38 1.36 1.17 1.08 1.05 1.09 1.13 1.12 1.23 1.28 1.29 1.31 1.37 1.46 1.61 1.68 1.76 1.84 1.82
1.61 1.60 1.69 1.94 2.05 2.10 2.23 2.27 2.36 2.45 2.43 2.39 2.38 2.24 2.19 2.12 1.87 1.61 1.42 1.38 1.44 1.51 1.49 1.45 1.42 1.29 1.05 0.95 0.85 0.82 0.86 0.84 0.89 1.02 1.08 1.12 1.17 1.23 1.35 1.51 1.68 1.75 1.75
1.55 1.52 1.61 1.76 1.86 2.00 2.09 2.02 2.07 2.18 2.17 2.20 2.22 2.17 2.21 2.30 2.16 1.73 1.42 1.32 1.36 1.45 1.58 1.64 1.45 1.27 1.12 0.98 0.91 0.83 0.76 0.72 0.81 0.90 0.95 0.96 1.00 1.09 1.27 1.49 1.69 1.88 1.82
1.48 1.43 1.54 1.75 1.86 1.93 1.99 1.97 2.02 2.08 2.13 2.19 2.21 2.14 2.14 2.27 2.26 1.94 1.60 1.40 1.30 1.27 1.29 1.30 1.22 1.15 1.04 0.92 0.84 0.76 0.68 0.71 0.78 0.81 0.88 0.95 1.05 1.22 1.32 1.34 1.44 1.66 1.83
1.58 1.53 1.61 1.73 1.82 1.96 2.02 2.05 2.05 2.05 2.02 2.02 2.01 1.95 1.94 2.04 2.05 1.83 1.60 1.45 1.32 1.27 1.25 1.27 1.24 1.23 1.13 1.04 0.97 0.92 0.91 0.93 0.89 0.89 0.96 1.04 1.09 1.17 1.27 1.34 1.42 1.47 1.52
1.69 1.65 1.61 1.59 1.67 1.74 1.79 1.74 1.68 1.63 1.61 1.55 1.53 1.44 1.42 1.58 1.57 1.32 1.18 1.20 1.19 1.14 1.12 1.17 1.24 1.28 1.23 1.16 1.11 1.06 1.07 1.06 1.02 1.03 1.07 1.12 1.16 1.18 1.25 1.39 1.51 1.53 1.43
1.71 1.60 1.51 1.45 1.44 1.45 1.54 1.62 1.65 1.55 1.46 1.35 1.28 1.18 1.10 1.30 1.36 1.20 1.07 1.01 0.95 0.93 0.96 1.04 1.08 1.17 1.21 1.12 1.03 0.98 0.98 1.01 1.07 1.10 1.10 1.13 1.20 1.25 1.30 1.39 1.51 1.59 1.51
1.67 1.57 1.41 1.33 1.32 1.29 1.35 1.44 1.50 1.53 1.49 1.31 1.15 1.05 0.96 1.06 1.17 1.12 1.00 0.89 0.86 0.86 0.89 0.98 1.05 1.09 1.16 1.12 1.04 1.04 1.08 1.13 1.12 1.12 1.14 1.16 1.22 1.28 1.32 1.38 1.44 1.51 1.51
1.63 1.53 1.40 1.36 1.35 1.25 1.17 1.20 1.25 1.29 1.36 1.31 1.15 1.07 1.00 1.03 1.11 1.07 0.93 0.80 0.84 0.84 0.86 0.92 0.99 1.05 1.08 1.07 1.07 1.10 1.12 1.16 1.12 1.14 1.20 1.25 1.25 1.32 1.32 1.38 1.46 1.56 1.57
1.38 1.34 1.29 1.29 1.28 1.22 1.17 1.19 1.26 1.33 1.38 1.34 1.21 1.09 1.00 1.00 1.04 1.03 0.92 0.86 0.85 0.81 0.80 0.87 0.96 1.01 1.05 1.08 1.16 1.22 1.21 1.24 1.26 1.22 1.25 1.32 1.28 1.29 1.30 1.31 1.41 1.47 1.47
1.20 1.15 1.10 1.09 1.11 1.10 1.10 1.17 1.30 1.37 1.39 1.29 1.11 0.99 0.90 0.82 0.90 0.91 0.94 0.97 0.95 0.95 0.95 0.94 0.98 1.04 1.07 1.15 1.22 1.27 1.27 1.29 1.31 1.27 1.27 1.34 1.34 1.36 1.38 1.33 1.35 1.45 1.44
1.27 1.12 0.99 0.96 1.00 1.02 1.08 1.18 1.25 1.24 1.17 1.11 1.01 0.93 0.89 0.81 0.83 0.86 0.92 0.93 0.93 0.93 0.89 0.90 0.92 0.98 1.02 1.07 1.13 1.19 1.21 1.21 1.24 1.29 1.29 1.32 1.33 1.30 1.33 1.31 1.30 1.39 1.48
1.13 0.93 0.78 0.73 0.77 0.88 1.03 1.19 1.22 1.14 1.03 0.98 0.96 0.92 0.92 0.93 0.90 0.90 0.92 0.90 0.88 0.85 0.82 0.86 0.88 0.92 0.98 0.99 0.97 1.02 1.06 1.07 1.06 1.13 1.24 1.25 1.29 1.32 1.33 1.36 1.35 1.38 1.46
1.04 0.86 0.71 0.65 0.68 0.78 0.95 1.14 1.15 1.04 0.99 1.01 1.01 1.00 0.98 0.96 0.94 0.94 0.96 0.96 0.93 0.89 0.85 0.88 0.88 0.84 0.86 0.91 0.89 0.85 0.86 0.85 0.86 0.95 1.07 1.18 1.23 1.31 1.31 1.33 1.37 1.35 1.43
0.90 0.83 0.73 0.70 0.75 0.88 1.05 1.14 1.07 0.99 0.96 0.95 0.95 1.02 1.06 1.05 1.01 0.98 0.97 1.01 1.03 1.03 0.97 0.91 0.87 0.81 0.76 0.76 0.78 0.75 0.75 0.68 0.67 0.75 0.86 1.00 1.06 1.16 1.22 1.24 1.33 1.36 1.38
0.83 0.81 0.76 0.74 0.83 0.98 1.07 1.06 0.97 0.93 0.98 0.95 0.91 0.95 1.02 1.07 1.09 1.11 1.09 1.03 0.98 0.93 0.86 0.82 0.79 0.78 0.75 0.71 0.66 0.62 0.58 0.54 0.56 0.64 0.72 0.83 0.94 1.03 1.12 1.17 1.21 1.29 1.29